Time,TemperatureF,DewpointF,PressureIn,WindDirection,WindDirectionDegrees,WindSpeedMPH,WindSpeedGustMPH,Humidity,HourlyPrecipIn,Conditions,Clouds,dailyrainin,SoftwareType,DateUTC
2013-03-03 00:02:00,32.0,23.0,29.88,NNW,334,4.0,6.0,68,0.00,,,0.00,,2013-03-03 05:02:00,
2013-03-03 00:12:00,32.0,23.0,29.88,NNW,334,4.0,6.0,68,0.00,,,0.00,,2013-03-03 05:12:00,
2013-03-03 00:22:00,32.0,23.0,29.88,NW,315,2.0,4.0,68,0.00,,,0.00,,2013-03-03 05:22:00,
2013-03-03 00:32:00,31.0,22.0,29.88,NW,310,3.0,4.0,69,0.00,,,0.00,,2013-03-03 05:32:00,
2013-03-03 00:42:00,31.0,22.0,29.88,NW,310,3.0,4.0,69,0.00,,,0.00,,2013-03-03 05:42:00,
2013-03-03 00:52:00,31.0,22.0,29.88,NW,315,2.0,4.0,69,0.00,,,0.00,,2013-03-03 05:52:00,
2013-03-03 01:02:00,31.0,22.0,29.88,WNW,301,3.0,4.0,69,0.00,,,0.00,,2013-03-03 06:02:00,
2013-03-03 01:11:00,31.0,22.0,29.88,WNW,301,3.0,4.0,69,0.00,,,0.00,,2013-03-03 06:11:00,
2013-03-03 01:21:00,31.0,22.0,29.87,NW,320,2.0,4.0,69,0.00,,,0.00,,2013-03-03 06:21:00,
2013-03-03 01:32:00,32.0,23.0,29.87,NNW,338,3.0,4.0,68,0.00,,,0.00,,2013-03-03 06:32:00,
2013-03-03 01:42:00,32.0,23.0,29.87,NNW,338,3.0,4.0,68,0.00,,,0.00,,2013-03-03 06:42:00,
2013-03-03 01:52:00,32.0,22.0,29.87,NW,310,3.0,5.0,67,0.00,,,0.00,,2013-03-03 06:52:00,
2013-03-03 02:01:00,32.0,22.0,29.87,NNW,338,3.0,5.0,67,0.00,,,0.00,,2013-03-03 07:01:00,
2013-03-03 02:11:00,32.0,22.0,29.87,NNW,338,3.0,5.0,67,0.00,,,0.00,,2013-03-03 07:11:00,
2013-03-03 02:21:00,32.0,22.0,29.87,NNW,338,3.0,5.0,67,0.00,,,0.00,,2013-03-03 07:21:00,
2013-03-03 02:32:00,32.0,22.0,29.86,WNW,302,3.0,3.0,67,0.00,,,0.00,,2013-03-03 07:32:00,
2013-03-03 02:42:00,32.0,22.0,29.86,WNW,302,3.0,3.0,67,0.00,,,0.00,,2013-03-03 07:42:00,
2013-03-03 02:52:00,32.0,22.0,29.86,NNW,338,4.0,5.0,67,0.00,,,0.00,,2013-03-03 07:52:00,
2013-03-03 03:01:00,32.0,22.0,29.85,NNW,348,3.0,4.0,67,0.00,,,0.00,,2013-03-03 08:01:00,
2013-03-03 03:11:00,32.0,22.0,29.85,NNW,348,3.0,4.0,67,0.00,,,0.00,,2013-03-03 08:11:00,
2013-03-03 03:21:00,32.0,22.0,29.85,NNW,348,3.0,7.0,67,0.00,,,0.00,,2013-03-03 08:21:00,
2013-03-03 03:31:00,32.0,22.0,29.85,WNW,298,3.0,6.0,67,0.00,,,0.00,,2013-03-03 08:31:00,
2013-03-03 03:42:00,32.0,22.0,29.85,WNW,298,3.0,6.0,67,0.00,,,0.00,,2013-03-03 08:42:00,
2013-03-03 03:53:00,32.0,22.0,29.85,NW,322,2.0,4.0,67,0.00,,,0.00,,2013-03-03 08:53:00,
2013-03-03 04:01:00,32.0,22.0,29.85,NNW,329,6.0,7.0,67,0.00,,,0.00,,2013-03-03 09:01:00,
2013-03-03 04:12:00,32.0,22.0,29.85,NNW,329,6.0,7.0,67,0.00,,,0.00,,2013-03-03 09:12:00,
2013-03-03 04:21:00,31.0,21.0,29.85,NW,319,3.0,6.0,67,0.00,,,0.00,,2013-03-03 09:21:00,
2013-03-03 04:32:00,31.0,21.0,29.86,NNW,338,4.0,5.0,67,0.00,,,0.00,,2013-03-03 09:32:00,
2013-03-03 04:42:00,31.0,21.0,29.86,NNW,338,4.0,5.0,67,0.00,,,0.00,,2013-03-03 09:42:00,
2013-03-03 04:52:00,31.0,21.0,29.86,NW,315,4.0,6.0,67,0.00,,,0.00,,2013-03-03 09:52:00,
2013-03-03 05:01:00,31.0,21.0,29.86,NW,321,5.0,5.0,67,0.00,,,0.00,,2013-03-03 10:01:00,
2013-03-03 05:11:00,31.0,21.0,29.86,NW,321,5.0,5.0,67,0.00,,,0.00,,2013-03-03 10:11:00,
2013-03-03 05:21:00,31.0,21.0,29.87,NNW,347,3.0,8.0,66,0.00,,,0.00,,2013-03-03 10:21:00,
2013-03-03 05:22:00,31.0,21.0,29.87,NW,315,5.0,5.0,66,0.00,,,0.00,,2013-03-03 10:22:00,
2013-03-03 05:32:00,31.0,21.0,29.87,NNW,336,3.0,5.0,66,0.00,,,0.00,,2013-03-03 10:32:00,
2013-03-03 05:42:00,31.0,21.0,29.87,NNW,336,3.0,5.0,66,0.00,,,0.00,,2013-03-03 10:42:00,
2013-03-03 05:52:00,31.0,21.0,29.87,NW,315,5.0,5.0,66,0.00,,,0.00,,2013-03-03 10:52:00,
2013-03-03 06:01:00,31.0,21.0,29.87,NW,315,5.0,5.0,66,0.00,,,0.00,,2013-03-03 11:01:00,
2013-03-03 06:11:00,31.0,21.0,29.87,NW,315,5.0,5.0,66,0.00,,,0.00,,2013-03-03 11:11:00,
2013-03-03 22:02:00,32.0,20.0,29.88,NW,306,4.0,5.0,60,0.00,,,0.00,,2013-03-04 03:02:00,
2013-03-03 22:11:00,32.0,20.0,29.88,NW,306,4.0,5.0,60,0.00,,,0.00,,2013-03-04 03:11:00,
2013-03-03 22:22:00,32.0,20.0,29.88,NNW,338,4.0,4.0,60,0.00,,,0.00,,2013-03-04 03:22:00,
2013-03-03 22:32:00,32.0,20.0,29.89,NW,324,3.0,4.0,61,0.00,,,0.00,,2013-03-04 03:32:00,
2013-03-03 22:42:00,32.0,20.0,29.89,NW,312,3.0,5.0,62,0.00,,,0.00,,2013-03-04 03:42:00,
2013-03-03 22:52:00,32.0,20.0,29.89,NW,312,3.0,5.0,62,0.00,,,0.00,,2013-03-04 03:52:00,
2013-03-03 23:02:00,32.0,20.0,29.89,WNW,303,5.0,6.0,62,0.00,,,0.00,,2013-03-04 04:02:00,
2013-03-03 23:11:00,32.0,20.0,29.89,WNW,303,5.0,6.0,62,0.00,,,0.00,,2013-03-04 04:11:00,
2013-03-03 23:22:00,32.0,20.0,29.89,NNW,338,4.0,5.0,62,0.00,,,0.00,,2013-03-04 04:22:00,
2013-03-03 23:32:00,31.0,20.0,29.89,NW,306,3.0,5.0,62,0.00,,,0.00,,2013-03-04 04:32:00,
2013-03-03 23:42:00,31.0,20.0,29.89,NW,306,3.0,5.0,62,0.00,,,0.00,,2013-03-04 04:42:00,
2013-03-03 23:52:00,31.0,20.0,29.89,NNW,333,6.0,7.0,63,0.00,,,0.00,,2013-03-04 04:52:00,